BADBUCHAU Weather Reports


time (UTC)temp
C
wind
direction
speed
KPH
gust
KPH
rain 1hr
cm
rain 24hr
cm
rain mn
cm
humidity
%
barometer
mb
20260505023211 8 299 3.2 0.0 0.00 0.00 0.00 82 1008.3
20260505020211 9 342 6.4 0.0 0.00 0.00 0.00 84 1008.6
20260505013211 8 195 8.0 0.0 0.00 0.00 0.00 82 1009.0
20260505010211 10 262 3.2 0.0 0.00 0.00 0.00 80 1009.3
20260505003208 10 262 0.0 0.0 0.00 0.00 0.00 80 1009.6
20260505000211 11 53 3.2 0.0 0.00 0.00 0.00 77 1009.8
20260504233209 12 142 0.0 0.0 0.00 0.00 0.00 71 1009.9
20260504230209 13 142 1.6 0.0 0.00 0.00 0.00 69 1010.2
20260504223214 13 9 1.6 0.0 0.00 0.00 0.00 67 1010.1
20260504220209 13 9 0.0 0.0 0.00 0.00 0.00 65 1010.2
20260504213209 14 9 1.6 0.0 0.00 0.00 0.00 64 1010.3
20260504210209 14 5 16.1 0.0 0.00 0.00 0.00 63 1010.4
20260504203209 15 319 11.3 0.0 0.00 0.00 0.00 62 1010.5
20260504200209 16 336 12.9 0.0 0.00 0.00 0.00 57 1010.4
20260504193209 16 282 12.9 0.0 0.00 0.00 0.00 53 1010.4
20260504190209 17 271 11.3 0.0 0.00 0.00 0.00 51 1010.4
20260504183209 17 275 12.9 0.0 0.00 0.00 0.00 49 1010.5
20260504180214 18 246 12.9 0.0 0.00 0.00 0.00 45 1010.3
20260504173209 19 281 0.0 0.0 0.00 0.00 0.00 43 1009.9
20260504170210 20 281 4.8 0.0 0.00 0.00 0.00 44 1009.9
20260504160210 21 294 6.4 0.0 0.00 0.00 0.00 42 1009.9
20260504150210 22 45 6.4 0.0 0.00 0.00 0.00 38 1009.8
20260504140209 22 57 11.3 0.0 0.00 0.00 0.00 38 1010.2
20260504130215 22 161 20.9 0.0 0.00 0.00 0.00 41 1010.8
20260504120210 20 17 12.9 0.0 0.00 0.00 0.00 44 1011.1
20260504110210 20 5 11.3 0.0 0.00 0.00 0.00 43 1011.5
20260504100212 20 9 16.1 0.0 0.00 0.00 0.00 40 1012.0
20260504080210 18 112 4.8 0.0 0.00 0.00 0.00 47 1013.0
20260504070211 15 265 0.0 0.0 0.00 0.00 0.00 62 1013.0
20260504060212 11 265 0.0 0.0 0.00 0.00 0.00 78 1013.2
20260504050210 8 228 0.0 0.0 0.00 0.00 0.00 83 1013.5
20260504043211 7 228 0.0 0.0 0.00 0.00 0.00 82 1013.3
20260504040211 9 228 0.0 0.0 0.00 0.00 0.00 76 1013.3
20260504033211 9 228 4.8 0.0 0.00 0.00 0.00 77 1013.7
20260504030212 9 228 0.0 0.0 0.00 0.00 0.00 77 1013.5